Location: Newark
(44.6768°N, 22.5302°E)
Time: 13:21:25
(UTC+00:00)

AO-92 - Pass Details

Date: 07 July 2022
Orbit: 470 x 481 km, 97.4° (Epoch: 07 August)

Event Time Altitude Azimuth Distance (km) Brightness Sun altitude
Exits shadow 20:10:11 30° 129° (SE) 896 ? -15.1°
Maximum altitude 20:11:35 47° 73° (ENE) 649 ? -15.3°
Drops below altitude 10° 20:15:02 10° 359° (N) 1,672 ? -15.6°
Sets 20:17:10 0° 354° (N) 2,558 ? -15.8°
